Year,Month,Day,Hour,Minute,Value (Times are PST for temperature in C)
2019,04,02,00,00,10.20
2019,04,02,00,01,10.20
2019,04,02,00,02,10.20
2019,04,02,00,03,10.20
2019,04,02,00,04,10.20
2019,04,02,00,05,10.20
2019,04,02,00,06,10.20
2019,04,02,00,07,10.20
2019,04,02,00,08,10.20
2019,04,02,00,09,10.30
2019,04,02,00,10,10.30
2019,04,02,00,11,10.30
2019,04,02,00,12,10.30
2019,04,02,00,13,10.20
2019,04,02,00,14,10.20
2019,04,02,00,15,10.20
2019,04,02,00,16,10.10
2019,04,02,00,17,10.10
2019,04,02,00,18,10.10
2019,04,02,00,19,10.00
2019,04,02,00,20,10.00
2019,04,02,00,21,9.90
2019,04,02,00,22,9.90
2019,04,02,00,23,9.90
2019,04,02,00,24,9.80
2019,04,02,00,25,9.90
2019,04,02,00,26,9.90
2019,04,02,00,27,9.80
2019,04,02,00,28,9.80
2019,04,02,00,29,9.80
2019,04,02,00,30,9.90
2019,04,02,00,31,9.90
2019,04,02,00,32,10.00
2019,04,02,00,33,10.00
2019,04,02,00,34,10.10
2019,04,02,00,35,10.10
2019,04,02,00,36,10.10
2019,04,02,00,37,10.20
2019,04,02,00,38,10.20
2019,04,02,00,39,10.20
2019,04,02,00,40,10.20
2019,04,02,00,41,10.20
2019,04,02,00,42,10.30
2019,04,02,00,43,10.30
2019,04,02,00,44,10.30
2019,04,02,00,45,10.40
2019,04,02,00,46,10.50
2019,04,02,00,47,10.50
2019,04,02,00,48,10.50
2019,04,02,00,49,10.60
2019,04,02,00,50,10.70
2019,04,02,00,51,10.80
2019,04,02,00,52,10.80
2019,04,02,00,53,10.90
2019,04,02,00,54,11.00
2019,04,02,00,55,11.00
2019,04,02,00,56,11.10
2019,04,02,00,57,11.10
2019,04,02,00,58,11.20
2019,04,02,00,59,11.30
2019,04,02,01,00,11.40
2019,04,02,01,01,11.60
2019,04,02,01,02,11.70
2019,04,02,01,03,11.70
2019,04,02,01,04,11.70
2019,04,02,01,05,11.70
2019,04,02,01,06,11.70
2019,04,02,01,07,11.60
2019,04,02,01,08,11.60
2019,04,02,01,09,11.50
2019,04,02,01,10,11.50
2019,04,02,01,11,11.50
2019,04,02,01,12,11.40
2019,04,02,01,13,11.40
2019,04,02,01,14,11.30
2019,04,02,01,15,11.30
2019,04,02,01,16,11.30
2019,04,02,01,17,11.40
2019,04,02,01,18,11.40
2019,04,02,01,19,11.40
2019,04,02,01,20,11.40
2019,04,02,01,21,11.40
2019,04,02,01,22,11.40
2019,04,02,01,23,11.40
2019,04,02,01,24,11.40
2019,04,02,01,25,11.50
2019,04,02,01,26,11.50
2019,04,02,01,27,11.40
2019,04,02,01,28,11.40
2019,04,02,01,29,11.40
2019,04,02,01,30,11.40
2019,04,02,01,31,11.40
2019,04,02,01,32,11.40
2019,04,02,01,33,11.40
2019,04,02,01,34,11.40
2019,04,02,01,35,11.30
2019,04,02,01,36,11.30
2019,04,02,01,37,11.20
2019,04,02,01,38,11.10
2019,04,02,01,39,11.00
2019,04,02,01,40,11.00
2019,04,02,01,41,10.90
2019,04,02,01,42,10.80
2019,04,02,01,43,10.80
2019,04,02,01,44,10.70
2019,04,02,01,45,10.70
2019,04,02,01,46,10.70
2019,04,02,01,47,10.70
2019,04,02,01,48,10.70
2019,04,02,01,49,10.70
2019,04,02,01,50,10.70
2019,04,02,01,51,10.70
2019,04,02,01,52,10.70
2019,04,02,01,53,10.70
2019,04,02,01,54,10.80
2019,04,02,01,55,10.90
2019,04,02,01,56,10.90
2019,04,02,01,57,10.90
2019,04,02,01,58,10.90
2019,04,02,01,59,10.90
2019,04,02,02,00,10.90
2019,04,02,02,01,10.80
2019,04,02,02,02,10.80
2019,04,02,02,03,10.80
2019,04,02,02,04,10.70
2019,04,02,02,05,10.70
2019,04,02,02,06,10.60
2019,04,02,02,07,10.60
2019,04,02,02,08,10.60
2019,04,02,02,09,10.50
2019,04,02,02,10,10.50
2019,04,02,02,11,10.50
2019,04,02,02,12,10.40
2019,04,02,02,13,10.40
2019,04,02,02,14,10.40
2019,04,02,02,15,10.40
2019,04,02,02,16,10.40
2019,04,02,02,17,10.40
2019,04,02,02,18,10.40
2019,04,02,02,19,10.40
2019,04,02,02,20,10.50
2019,04,02,02,21,10.50
2019,04,02,02,22,10.50
2019,04,02,02,23,10.40
2019,04,02,02,24,10.40
2019,04,02,02,25,10.50
2019,04,02,02,26,10.50
2019,04,02,02,27,10.50
2019,04,02,02,28,10.50
2019,04,02,02,29,10.50
2019,04,02,02,30,10.40
2019,04,02,02,31,10.30
2019,04,02,02,32,10.30
2019,04,02,02,33,10.20
2019,04,02,02,34,10.20
2019,04,02,02,35,10.10
2019,04,02,02,36,10.00
2019,04,02,02,37,10.00
2019,04,02,02,38,9.90
2019,04,02,02,39,10.00
2019,04,02,02,40,10.00
2019,04,02,02,41,10.00
2019,04,02,02,42,9.90
2019,04,02,02,43,9.90
2019,04,02,02,44,9.80
2019,04,02,02,45,9.80
2019,04,02,02,46,9.80
2019,04,02,02,47,9.80
2019,04,02,02,48,9.80
2019,04,02,02,49,9.80
2019,04,02,02,50,9.80
2019,04,02,02,51,9.80
2019,04,02,02,52,9.80
2019,04,02,02,53,9.80
2019,04,02,02,54,9.90
2019,04,02,02,55,9.90
2019,04,02,02,56,9.90
2019,04,02,02,57,9.80
2019,04,02,02,58,9.80
2019,04,02,02,59,9.80
2019,04,02,03,00,9.80
2019,04,02,03,01,9.70
2019,04,02,03,02,9.70
2019,04,02,03,03,9.60
2019,04,02,03,04,9.60
2019,04,02,03,05,9.60
2019,04,02,03,06,9.60
2019,04,02,03,07,9.70
2019,04,02,03,08,9.70
2019,04,02,03,09,9.70
2019,04,02,03,10,9.70
2019,04,02,03,11,9.70
2019,04,02,03,12,9.70
2019,04,02,03,13,9.70
2019,04,02,03,14,9.60
2019,04,02,03,15,9.60
2019,04,02,03,16,9.60
2019,04,02,03,17,9.50
2019,04,02,03,18,9.40
2019,04,02,03,19,9.40
2019,04,02,03,20,9.40
2019,04,02,03,21,9.30
2019,04,02,03,22,9.30
2019,04,02,03,23,9.30
2019,04,02,03,24,9.30
2019,04,02,03,25,9.30
2019,04,02,03,26,9.20
2019,04,02,03,27,9.20
2019,04,02,03,28,9.10
2019,04,02,03,29,9.10
2019,04,02,03,30,9.10
2019,04,02,03,31,9.10
2019,04,02,03,32,9.10
2019,04,02,03,33,9.10
2019,04,02,03,34,9.10
2019,04,02,03,35,9.10
2019,04,02,03,36,9.00
2019,04,02,03,37,9.00
2019,04,02,03,38,8.90
2019,04,02,03,39,8.90
2019,04,02,03,40,8.90
2019,04,02,03,41,8.90
2019,04,02,03,42,8.80
2019,04,02,03,43,8.80
2019,04,02,03,44,8.80
2019,04,02,03,45,8.80
2019,04,02,03,46,8.80
2019,04,02,03,47,8.80
2019,04,02,03,48,8.70
2019,04,02,03,49,8.70
2019,04,02,03,50,8.70
2019,04,02,03,51,8.70
2019,04,02,03,52,8.70
2019,04,02,03,53,8.70
2019,04,02,03,54,8.70
2019,04,02,03,55,8.70
2019,04,02,03,56,8.70
2019,04,02,03,57,8.60
2019,04,02,03,58,8.60
2019,04,02,03,59,8.50
2019,04,02,04,00,8.50
2019,04,02,04,01,8.50
2019,04,02,04,02,8.40
2019,04,02,04,03,8.40
2019,04,02,04,04,8.40
2019,04,02,04,05,8.40
2019,04,02,04,06,8.30
2019,04,02,04,07,8.30
2019,04,02,04,08,8.20
2019,04,02,04,09,8.20
2019,04,02,04,10,8.10
2019,04,02,04,11,8.10
2019,04,02,04,12,8.10
2019,04,02,04,13,8.00
2019,04,02,04,14,7.90
2019,04,02,04,15,7.90
2019,04,02,04,16,7.80
2019,04,02,04,17,7.80
2019,04,02,04,18,7.80
2019,04,02,04,19,7.80
2019,04,02,04,20,7.80
2019,04,02,04,21,7.70
2019,04,02,04,22,7.70
2019,04,02,04,23,7.70
2019,04,02,04,24,7.70
2019,04,02,04,25,7.70
2019,04,02,04,26,7.70
2019,04,02,04,27,7.70
2019,04,02,04,28,7.70
2019,04,02,04,29,7.70
2019,04,02,04,30,7.70
2019,04,02,04,31,7.70
2019,04,02,04,32,7.70
2019,04,02,04,33,7.70
2019,04,02,04,34,7.70
2019,04,02,04,35,7.70
2019,04,02,04,36,7.70
2019,04,02,04,37,7.80
2019,04,02,04,38,7.80
2019,04,02,04,39,7.80
2019,04,02,04,40,7.80
2019,04,02,04,41,7.80
2019,04,02,04,42,7.70
2019,04,02,04,43,7.70
2019,04,02,04,44,7.70
2019,04,02,04,45,7.70
2019,04,02,04,46,7.60
2019,04,02,04,47,7.70
2019,04,02,04,48,7.70
2019,04,02,04,49,7.70
2019,04,02,04,50,7.60
2019,04,02,04,51,7.60
2019,04,02,04,52,7.60
2019,04,02,04,53,7.60
2019,04,02,04,54,7.60
2019,04,02,04,55,7.60
2019,04,02,04,56,7.60
2019,04,02,04,57,7.70
2019,04,02,04,58,7.70
2019,04,02,04,59,7.80
2019,04,02,05,00,7.80
2019,04,02,05,01,7.80
2019,04,02,05,02,7.80
2019,04,02,05,03,7.80
2019,04,02,05,04,7.90
2019,04,02,05,05,7.90
2019,04,02,05,06,7.90
2019,04,02,05,07,7.90
2019,04,02,05,08,7.90
2019,04,02,05,09,7.90
2019,04,02,05,10,7.80
2019,04,02,05,11,7.80
2019,04,02,05,12,7.80
2019,04,02,05,13,7.80
2019,04,02,05,14,7.70
2019,04,02,05,15,7.70
2019,04,02,05,16,7.70
2019,04,02,05,17,7.60
2019,04,02,05,18,7.60
2019,04,02,05,19,7.50
2019,04,02,05,20,7.50
2019,04,02,05,21,7.50
2019,04,02,05,22,7.50
2019,04,02,05,23,7.50
2019,04,02,05,24,7.50
2019,04,02,05,25,7.40
2019,04,02,05,26,7.40
2019,04,02,05,27,7.40
2019,04,02,05,28,7.40
2019,04,02,05,29,7.40
2019,04,02,05,30,7.40
2019,04,02,05,31,7.40
2019,04,02,05,32,7.30
2019,04,02,05,33,7.30
2019,04,02,05,34,7.30
2019,04,02,05,35,7.30
2019,04,02,05,36,7.20
2019,04,02,05,37,7.20
2019,04,02,05,38,7.30
2019,04,02,05,39,7.30
2019,04,02,05,40,7.30
2019,04,02,05,41,7.30
2019,04,02,05,42,7.30
2019,04,02,05,43,7.30
2019,04,02,05,44,7.30
2019,04,02,05,45,7.30
2019,04,02,05,46,7.30
2019,04,02,05,47,7.30
2019,04,02,05,48,7.30
2019,04,02,05,49,7.20
2019,04,02,05,50,7.20
2019,04,02,05,51,7.20
2019,04,02,05,52,7.20
2019,04,02,05,53,7.10
2019,04,02,05,54,7.10
2019,04,02,05,55,7.20
2019,04,02,05,56,7.20
2019,04,02,05,57,7.20
2019,04,02,05,58,7.20
2019,04,02,05,59,7.20
2019,04,02,06,00,7.20
2019,04,02,06,01,7.20
2019,04,02,06,02,7.10
2019,04,02,06,03,7.10
2019,04,02,06,04,7.10
2019,04,02,06,05,7.10
2019,04,02,06,06,7.10
2019,04,02,06,07,7.10
2019,04,02,06,08,7.10
2019,04,02,06,09,7.00
2019,04,02,06,10,7.00
2019,04,02,06,11,6.90
2019,04,02,06,12,6.80
2019,04,02,06,13,6.80
2019,04,02,06,14,6.80
2019,04,02,06,15,6.80
2019,04,02,06,16,6.80
2019,04,02,06,17,6.70
2019,04,02,06,18,6.70
2019,04,02,06,19,6.70
2019,04,02,06,20,6.70
2019,04,02,06,21,6.70
2019,04,02,06,22,6.70
2019,04,02,06,23,6.70
2019,04,02,06,24,6.70
2019,04,02,06,25,6.80
2019,04,02,06,26,6.80
2019,04,02,06,27,6.80
2019,04,02,06,28,6.80
2019,04,02,06,29,6.80
2019,04,02,06,30,6.80
2019,04,02,06,31,6.80
2019,04,02,06,32,6.80
2019,04,02,06,33,6.80
2019,04,02,06,34,6.80
2019,04,02,06,35,6.70
2019,04,02,06,36,6.70
2019,04,02,06,37,6.70
2019,04,02,06,38,6.70
2019,04,02,06,39,6.60
2019,04,02,06,40,6.60
2019,04,02,06,41,6.60
2019,04,02,06,42,6.50
2019,04,02,06,43,6.50
2019,04,02,06,44,6.50
2019,04,02,06,45,6.50
2019,04,02,06,46,6.50
2019,04,02,06,47,6.50
2019,04,02,06,48,6.50
2019,04,02,06,49,6.50
2019,04,02,06,50,6.50
2019,04,02,06,51,6.50
2019,04,02,06,52,6.50
2019,04,02,06,53,6.40
2019,04,02,06,54,6.40
2019,04,02,06,55,6.40
2019,04,02,06,56,6.40
2019,04,02,06,57,6.40
2019,04,02,06,58,6.30
2019,04,02,06,59,6.30
2019,04,02,07,00,6.30
2019,04,02,07,01,6.30
2019,04,02,07,02,6.30
2019,04,02,07,03,6.20
2019,04,02,07,04,6.20
2019,04,02,07,05,6.20
2019,04,02,07,06,6.30
2019,04,02,07,07,6.30
2019,04,02,07,08,6.30
2019,04,02,07,09,6.30
2019,04,02,07,10,6.40
2019,04,02,07,11,6.40
2019,04,02,07,12,6.40
2019,04,02,07,13,6.40
2019,04,02,07,14,6.40
2019,04,02,07,15,6.50
2019,04,02,07,16,6.60
2019,04,02,07,17,6.70
2019,04,02,07,18,7.00
2019,04,02,07,19,7.20
2019,04,02,07,20,7.30
2019,04,02,07,21,7.30
2019,04,02,07,22,7.30
2019,04,02,07,23,7.30
2019,04,02,07,24,7.30
2019,04,02,07,25,7.30
2019,04,02,07,26,7.40
2019,04,02,07,27,7.40
2019,04,02,07,28,7.50
2019,04,02,07,29,7.60
2019,04,02,07,30,7.60
2019,04,02,07,31,7.70
2019,04,02,07,32,7.70
2019,04,02,07,33,7.70
2019,04,02,07,34,7.70
2019,04,02,07,35,7.70
2019,04,02,07,36,7.60
2019,04,02,07,37,7.60
2019,04,02,07,38,7.50
2019,04,02,07,39,7.40
2019,04,02,07,40,7.30
2019,04,02,07,41,7.20
2019,04,02,07,42,7.20
2019,04,02,07,43,7.20
2019,04,02,07,44,7.10
2019,04,02,07,45,7.10
2019,04,02,07,46,7.20
2019,04,02,07,47,7.20
2019,04,02,07,48,7.20
2019,04,02,07,49,7.30
2019,04,02,07,50,7.30
2019,04,02,07,51,7.40
2019,04,02,07,52,7.50
2019,04,02,07,53,7.60
2019,04,02,07,54,7.60
2019,04,02,07,55,7.70
2019,04,02,07,56,7.70
2019,04,02,07,57,7.80
2019,04,02,07,58,7.90
2019,04,02,07,59,7.90
2019,04,02,08,00,8.00
2019,04,02,08,01,8.00
2019,04,02,08,02,8.10
2019,04,02,08,03,8.10
2019,04,02,08,04,8.10
2019,04,02,08,05,8.10
2019,04,02,08,06,8.20
2019,04,02,08,07,8.20
2019,04,02,08,08,8.20
2019,04,02,08,09,8.20
2019,04,02,08,10,8.20
2019,04,02,08,11,8.30
2019,04,02,08,12,8.30
2019,04,02,08,13,8.30
2019,04,02,08,14,8.40
2019,04,02,08,15,8.40
2019,04,02,08,16,8.50
2019,04,02,08,17,8.60
2019,04,02,08,18,8.70
2019,04,02,08,19,8.70
2019,04,02,08,20,8.80
2019,04,02,08,21,8.90
2019,04,02,08,22,9.00
2019,04,02,08,23,9.00
2019,04,02,08,24,9.10
2019,04,02,08,25,9.20
2019,04,02,08,26,9.30
2019,04,02,08,27,9.40
2019,04,02,08,28,9.40
2019,04,02,08,29,9.50
2019,04,02,08,30,9.50
2019,04,02,08,31,9.60
2019,04,02,08,32,9.70
2019,04,02,08,33,9.70
2019,04,02,08,34,9.80
2019,04,02,08,35,9.80
2019,04,02,08,36,9.80
2019,04,02,08,37,9.80
2019,04,02,08,38,9.90
2019,04,02,08,39,9.90
2019,04,02,08,40,9.90
2019,04,02,08,41,10.00
2019,04,02,08,42,10.00
2019,04,02,08,43,10.10
2019,04,02,08,44,10.10
2019,04,02,08,45,10.20
2019,04,02,08,46,10.20
2019,04,02,08,47,10.30
2019,04,02,08,48,10.40
2019,04,02,08,49,10.40
2019,04,02,08,50,10.50
2019,04,02,08,51,10.50
2019,04,02,08,52,10.60
2019,04,02,08,53,10.60
2019,04,02,08,54,10.70
2019,04,02,08,55,10.70
2019,04,02,08,56,10.80
2019,04,02,08,57,10.80
2019,04,02,08,58,10.90
2019,04,02,08,59,10.90
2019,04,02,09,00,11.00
2019,04,02,09,01,11.10
2019,04,02,09,02,11.10
2019,04,02,09,03,11.20
2019,04,02,09,04,11.20
2019,04,02,09,05,11.30
2019,04,02,09,06,11.30
2019,04,02,09,07,11.30
2019,04,02,09,08,11.40
2019,04,02,09,09,11.40
2019,04,02,09,10,11.50
2019,04,02,09,11,11.50
2019,04,02,09,12,11.50
2019,04,02,09,13,11.60
2019,04,02,09,14,11.60
2019,04,02,09,15,11.70
2019,04,02,09,16,11.70
2019,04,02,09,17,11.70
2019,04,02,09,18,11.80
2019,04,02,09,19,11.80
2019,04,02,09,20,11.90
2019,04,02,09,21,11.90
2019,04,02,09,22,11.90
2019,04,02,09,23,12.00
2019,04,02,09,24,12.10
2019,04,02,09,25,12.10
2019,04,02,09,26,12.10
2019,04,02,09,27,12.20
2019,04,02,09,28,12.20
2019,04,02,09,29,12.30
2019,04,02,09,30,12.30
2019,04,02,09,31,12.30
2019,04,02,09,32,12.40
2019,04,02,09,33,12.40
2019,04,02,09,34,12.40
2019,04,02,09,35,12.50
2019,04,02,09,36,12.60
2019,04,02,09,37,12.60
2019,04,02,09,38,12.70
2019,04,02,09,39,12.80
2019,04,02,09,40,12.80
2019,04,02,09,41,12.80
2019,04,02,09,42,12.90
2019,04,02,09,43,12.90
2019,04,02,09,44,12.90
2019,04,02,09,45,13.00
2019,04,02,09,46,13.00
2019,04,02,09,47,13.10
2019,04,02,09,48,13.20
2019,04,02,09,49,13.20
2019,04,02,09,50,13.30
2019,04,02,09,51,13.30
2019,04,02,09,52,13.40
2019,04,02,09,53,13.40
2019,04,02,09,54,13.50
2019,04,02,09,55,13.60
2019,04,02,09,56,13.60
2019,04,02,09,57,13.70
2019,04,02,09,58,13.80
2019,04,02,09,59,13.80
2019,04,02,10,00,13.90
2019,04,02,10,01,13.90
2019,04,02,10,02,13.90
2019,04,02,10,03,13.90
2019,04,02,10,04,13.90
2019,04,02,10,05,13.90
2019,04,02,10,06,13.90
2019,04,02,10,07,13.90
2019,04,02,10,08,13.90
2019,04,02,10,09,14.00
2019,04,02,10,10,14.00
2019,04,02,10,11,14.10
2019,04,02,10,12,14.20
2019,04,02,10,13,14.30
2019,04,02,10,14,14.40
2019,04,02,10,15,14.60
2019,04,02,10,16,14.60
2019,04,02,10,17,14.70
2019,04,02,10,18,14.90
2019,04,02,10,19,15.00
2019,04,02,10,20,15.10
2019,04,02,10,21,15.20
2019,04,02,10,22,15.20
2019,04,02,10,23,15.30
2019,04,02,10,24,15.30
2019,04,02,10,25,15.40
2019,04,02,10,26,15.40
2019,04,02,10,27,15.50
2019,04,02,10,28,15.50
2019,04,02,10,29,15.60
2019,04,02,10,30,15.60
2019,04,02,10,31,15.60
2019,04,02,10,32,15.60
2019,04,02,10,33,15.60
2019,04,02,10,34,15.60
2019,04,02,10,35,15.50
2019,04,02,10,36,15.50
2019,04,02,10,37,15.50
2019,04,02,10,38,15.50
2019,04,02,10,39,15.50
2019,04,02,10,40,15.60
2019,04,02,10,41,15.60
2019,04,02,10,42,15.70
2019,04,02,10,43,15.70
2019,04,02,10,44,15.80
2019,04,02,10,45,15.80
2019,04,02,10,46,15.90
2019,04,02,10,47,15.90
2019,04,02,10,48,15.90
2019,04,02,10,49,15.90
2019,04,02,10,50,15.90
2019,04,02,10,51,15.80
2019,04,02,10,52,15.80
2019,04,02,10,53,15.80
2019,04,02,10,54,15.90
2019,04,02,10,55,15.90
2019,04,02,10,56,15.80
2019,04,02,10,57,15.80
2019,04,02,10,58,15.80
2019,04,02,10,59,15.80
2019,04,02,11,00,15.80
2019,04,02,11,01,15.70
2019,04,02,11,02,15.70
2019,04,02,11,03,15.70
2019,04,02,11,04,15.70
2019,04,02,11,05,15.70
2019,04,02,11,06,15.70
2019,04,02,11,07,15.70
2019,04,02,11,08,15.80
2019,04,02,11,09,15.80
2019,04,02,11,10,15.80
2019,04,02,11,11,15.80
2019,04,02,11,12,15.80
2019,04,02,11,13,15.70
2019,04,02,11,14,15.70
2019,04,02,11,15,15.80
2019,04,02,11,16,15.90
2019,04,02,11,17,15.90
2019,04,02,11,18,15.90
2019,04,02,11,19,15.90
2019,04,02,11,20,15.90
2019,04,02,11,21,15.90
2019,04,02,11,22,15.90
2019,04,02,11,23,16.00
2019,04,02,11,24,16.00
2019,04,02,11,25,16.00
2019,04,02,11,26,16.00
2019,04,02,11,27,15.90
2019,04,02,11,28,15.90
2019,04,02,11,29,15.90
2019,04,02,11,30,15.90
2019,04,02,11,31,15.90
2019,04,02,11,32,16.00
2019,04,02,11,33,15.90
2019,04,02,11,34,16.00
2019,04,02,11,35,16.00
2019,04,02,11,36,16.10
2019,04,02,11,37,16.10
2019,04,02,11,38,16.10
2019,04,02,11,39,16.10
2019,04,02,11,40,16.10
2019,04,02,11,41,16.10
2019,04,02,11,42,16.10
2019,04,02,11,43,16.10
2019,04,02,11,44,16.10
2019,04,02,11,45,16.10
2019,04,02,11,46,16.10
2019,04,02,11,47,16.00
2019,04,02,11,48,16.00
2019,04,02,11,49,16.00
2019,04,02,11,50,16.10
2019,04,02,11,51,16.10
2019,04,02,11,52,16.10
2019,04,02,11,53,16.10
2019,04,02,11,54,16.10
2019,04,02,11,55,16.10
2019,04,02,11,56,16.10
2019,04,02,11,57,16.10
2019,04,02,11,58,16.10
2019,04,02,11,59,16.00
2019,04,02,12,00,16.10
2019,04,02,12,01,16.10
2019,04,02,12,02,16.10
2019,04,02,12,03,16.10
2019,04,02,12,04,16.10
2019,04,02,12,05,16.10
2019,04,02,12,06,16.10
2019,04,02,12,07,16.10
2019,04,02,12,08,16.20
2019,04,02,12,09,16.30
2019,04,02,12,10,16.40
2019,04,02,12,11,16.50
2019,04,02,12,12,16.60
2019,04,02,12,13,16.70
2019,04,02,12,14,16.60
2019,04,02,12,15,16.60
2019,04,02,12,16,16.50
2019,04,02,12,17,16.50
2019,04,02,12,18,16.50
2019,04,02,12,19,16.60
2019,04,02,12,20,16.60
2019,04,02,12,21,16.60
2019,04,02,12,22,16.60
2019,04,02,12,23,16.60
2019,04,02,12,24,16.60
2019,04,02,12,25,16.60
2019,04,02,12,26,16.70
2019,04,02,12,27,16.60
2019,04,02,12,28,16.60
2019,04,02,12,29,16.60
2019,04,02,12,30,16.60
2019,04,02,12,31,16.60
2019,04,02,12,32,16.70
2019,04,02,12,33,16.70
2019,04,02,12,34,16.70
2019,04,02,12,35,16.70
2019,04,02,12,36,16.70
2019,04,02,12,37,16.70
2019,04,02,12,38,16.70
2019,04,02,12,39,16.60
2019,04,02,12,40,16.60
2019,04,02,12,41,16.60
2019,04,02,12,42,16.60
2019,04,02,12,43,16.60
2019,04,02,12,44,16.60
2019,04,02,12,45,16.60
2019,04,02,12,46,16.60
2019,04,02,12,47,16.70
2019,04,02,12,48,16.80
2019,04,02,12,49,16.80
2019,04,02,12,50,16.80
2019,04,02,12,51,16.80
2019,04,02,12,52,16.80
2019,04,02,12,53,16.80
2019,04,02,12,54,16.70
2019,04,02,12,55,16.70
2019,04,02,12,56,16.70
2019,04,02,12,57,16.70
2019,04,02,12,58,16.70
2019,04,02,12,59,16.70
2019,04,02,13,00,16.80
2019,04,02,13,01,16.80
2019,04,02,13,02,16.90
2019,04,02,13,03,17.00
2019,04,02,13,04,17.10
2019,04,02,13,05,17.20
2019,04,02,13,06,17.30
2019,04,02,13,07,17.40
2019,04,02,13,08,17.40
2019,04,02,13,09,17.30
2019,04,02,13,10,17.30
2019,04,02,13,11,17.40
2019,04,02,13,12,17.40
2019,04,02,13,13,17.40
2019,04,02,13,14,17.40
2019,04,02,13,15,17.40
2019,04,02,13,16,17.40
2019,04,02,13,17,17.40
2019,04,02,13,18,17.40
2019,04,02,13,19,17.40
2019,04,02,13,20,17.40
2019,04,02,13,21,17.40
2019,04,02,13,22,17.30
2019,04,02,13,23,17.30
2019,04,02,13,24,17.30
2019,04,02,13,25,17.30
2019,04,02,13,26,17.20
2019,04,02,13,27,17.30
2019,04,02,13,28,17.40
2019,04,02,13,29,17.50
2019,04,02,13,30,17.50
2019,04,02,13,31,17.60
2019,04,02,13,32,17.70
2019,04,02,13,33,17.60
2019,04,02,13,34,17.60
2019,04,02,13,35,17.50
2019,04,02,13,36,17.50
2019,04,02,13,37,17.50
2019,04,02,13,38,17.40
2019,04,02,13,39,17.30
2019,04,02,13,40,17.30
2019,04,02,13,41,17.40
2019,04,02,13,42,17.40
2019,04,02,13,43,17.50
2019,04,02,13,44,17.50
2019,04,02,13,45,17.60
2019,04,02,13,46,17.60
2019,04,02,13,47,17.60
2019,04,02,13,48,17.60
2019,04,02,13,49,17.60
2019,04,02,13,50,17.70
2019,04,02,13,51,17.80
2019,04,02,13,52,17.80
2019,04,02,13,53,17.80
2019,04,02,13,54,17.70
2019,04,02,13,55,17.70
2019,04,02,13,56,17.70
2019,04,02,13,57,17.70
2019,04,02,13,58,17.70
2019,04,02,13,59,17.70
2019,04,02,14,00,17.70
2019,04,02,14,01,17.70
2019,04,02,14,02,17.70
2019,04,02,14,03,17.70
2019,04,02,14,04,17.70
2019,04,02,14,05,17.80
2019,04,02,14,06,17.80
2019,04,02,14,07,17.80
2019,04,02,14,08,17.80
2019,04,02,14,09,17.80
2019,04,02,14,10,17.80
2019,04,02,14,11,17.90
2019,04,02,14,12,17.90
2019,04,02,14,13,17.90
2019,04,02,14,14,17.90
2019,04,02,14,15,17.90
2019,04,02,14,16,17.90
2019,04,02,14,17,18.00
2019,04,02,14,18,18.00
2019,04,02,14,19,17.90
2019,04,02,14,20,17.90
2019,04,02,14,21,17.80
2019,04,02,14,22,17.80
2019,04,02,14,23,17.90
2019,04,02,14,24,17.90
2019,04,02,14,25,18.00
2019,04,02,14,26,18.10
2019,04,02,14,27,18.10
2019,04,02,14,28,18.10
2019,04,02,14,29,18.10
2019,04,02,14,30,18.10
2019,04,02,14,31,18.10
2019,04,02,14,32,18.10
2019,04,02,14,33,18.20
2019,04,02,14,34,18.20
2019,04,02,14,35,18.20
2019,04,02,14,36,18.20
2019,04,02,14,37,18.20
2019,04,02,14,38,18.10
2019,04,02,14,39,18.10
2019,04,02,14,40,18.10
2019,04,02,14,41,18.10
2019,04,02,14,42,18.10
2019,04,02,14,43,18.20
2019,04,02,14,44,18.30
2019,04,02,14,45,18.50
2019,04,02,14,46,18.60
2019,04,02,14,47,18.60
2019,04,02,14,48,18.60
2019,04,02,14,49,18.60
2019,04,02,14,50,18.50
2019,04,02,14,51,18.50
2019,04,02,14,52,18.50
2019,04,02,14,53,18.50
2019,04,02,14,54,18.50
2019,04,02,14,55,18.40
2019,04,02,14,56,18.40
2019,04,02,14,57,18.40
2019,04,02,14,58,18.40
2019,04,02,14,59,18.50
2019,04,02,15,00,18.50
2019,04,02,15,01,18.50
2019,04,02,15,02,18.50
2019,04,02,15,03,18.50
2019,04,02,15,04,18.50
2019,04,02,15,05,18.60
2019,04,02,15,06,18.60
2019,04,02,15,07,18.70
2019,04,02,15,08,18.70
2019,04,02,15,09,18.70
2019,04,02,15,10,18.70
2019,04,02,15,11,18.70
2019,04,02,15,12,18.70
2019,04,02,15,13,18.70
2019,04,02,15,14,18.70
2019,04,02,15,15,18.80
2019,04,02,15,16,18.80
2019,04,02,15,17,18.80
2019,04,02,15,18,18.90
2019,04,02,15,19,18.90
2019,04,02,15,20,18.90
2019,04,02,15,21,18.90
2019,04,02,15,22,18.90
2019,04,02,15,23,18.90
2019,04,02,15,24,19.00
2019,04,02,15,25,19.00
2019,04,02,15,26,19.00
2019,04,02,15,27,19.10
2019,04,02,15,28,19.10
2019,04,02,15,29,19.00
2019,04,02,15,30,18.90
2019,04,02,15,31,18.80
2019,04,02,15,32,18.70
2019,04,02,15,33,18.60
2019,04,02,15,34,18.60
2019,04,02,15,35,18.60
2019,04,02,15,36,18.50
2019,04,02,15,37,18.50
2019,04,02,15,38,18.50
2019,04,02,15,39,18.50
2019,04,02,15,40,18.50
2019,04,02,15,41,18.50
2019,04,02,15,42,18.40
2019,04,02,15,43,18.40
2019,04,02,15,44,18.40
2019,04,02,15,45,18.40
2019,04,02,15,46,18.30
2019,04,02,15,47,18.30
2019,04,02,15,48,18.30
2019,04,02,15,49,18.30
2019,04,02,15,50,18.30
2019,04,02,15,51,18.30
2019,04,02,15,52,18.30
2019,04,02,15,53,18.30
2019,04,02,15,54,18.30
2019,04,02,15,55,18.30
2019,04,02,15,56,18.30
2019,04,02,15,57,18.30
2019,04,02,15,58,18.20
2019,04,02,15,59,18.20
2019,04,02,16,00,18.20
2019,04,02,16,01,18.20
2019,04,02,16,02,18.20
2019,04,02,16,03,18.20
2019,04,02,16,04,18.20
2019,04,02,16,05,18.20
2019,04,02,16,06,18.20
2019,04,02,16,07,18.20
2019,04,02,16,08,18.20
2019,04,02,16,09,18.30
2019,04,02,16,10,18.30
2019,04,02,16,11,18.30
2019,04,02,16,12,18.40
2019,04,02,16,13,18.50
2019,04,02,16,14,18.50
2019,04,02,16,15,18.50
2019,04,02,16,16,18.50
2019,04,02,16,17,18.50
2019,04,02,16,18,18.60
2019,04,02,16,19,18.60
2019,04,02,16,20,18.60
2019,04,02,16,21,18.60
2019,04,02,16,22,18.60
2019,04,02,16,23,18.50
2019,04,02,16,24,18.50
2019,04,02,16,25,18.40
2019,04,02,16,26,18.40
2019,04,02,16,27,18.40
2019,04,02,16,28,18.40
2019,04,02,16,29,18.40
2019,04,02,16,30,18.40
2019,04,02,16,31,18.40
2019,04,02,16,32,18.30
2019,04,02,16,33,18.30
2019,04,02,16,34,18.30
2019,04,02,16,35,18.30
2019,04,02,16,36,18.20
2019,04,02,16,37,18.20
2019,04,02,16,38,18.20
2019,04,02,16,39,18.20
2019,04,02,16,40,18.10
2019,04,02,16,41,18.10
2019,04,02,16,42,18.10
2019,04,02,16,43,18.10
2019,04,02,16,44,18.10
2019,04,02,16,45,18.10
2019,04,02,16,46,18.10
2019,04,02,16,47,18.10
2019,04,02,16,48,18.10
2019,04,02,16,49,18.20
2019,04,02,16,50,18.10
2019,04,02,16,51,18.10
2019,04,02,16,52,18.10
2019,04,02,16,53,18.10
2019,04,02,16,54,18.10
2019,04,02,16,55,18.00
2019,04,02,16,56,18.00
2019,04,02,16,57,17.90
2019,04,02,16,58,17.90
2019,04,02,16,59,17.90
2019,04,02,17,00,17.80
2019,04,02,17,01,17.80
2019,04,02,17,02,17.80
2019,04,02,17,03,17.80
2019,04,02,17,04,17.80
2019,04,02,17,05,17.80
2019,04,02,17,06,17.80
2019,04,02,17,07,17.80
2019,04,02,17,08,17.80
2019,04,02,17,09,17.80
2019,04,02,17,10,17.80
2019,04,02,17,11,17.80
2019,04,02,17,12,17.80
2019,04,02,17,13,17.80
2019,04,02,17,14,17.80
2019,04,02,17,15,17.80
2019,04,02,17,16,17.80
2019,04,02,17,17,17.70
2019,04,02,17,18,17.70
2019,04,02,17,19,17.70
2019,04,02,17,20,17.70
2019,04,02,17,21,17.70
2019,04,02,17,22,17.70
2019,04,02,17,23,17.70
2019,04,02,17,24,17.70
2019,04,02,17,25,17.70
2019,04,02,17,26,17.70
2019,04,02,17,27,17.70
2019,04,02,17,28,17.70
2019,04,02,17,29,17.70
2019,04,02,17,30,17.70
2019,04,02,17,31,17.70
2019,04,02,17,32,17.80
2019,04,02,17,33,17.80
2019,04,02,17,34,17.80
2019,04,02,17,35,17.70